| time (UTC) | temp C | wind direction | speed KPH | gust KPH | rain 1hr cm | rain 24hr cm | rain mn cm | humidity % | barometer mb |
| 20260906073024 | 18 | 134 | 0.0 | 3.2 | 0.00 | 0.08 | 0.00 | 60 | 1018.6 |
| 20260906071531 | 18 | 134 | 0.0 | 3.2 | 0.00 | 0.08 | 0.00 | 58 | 1018.7 |
| 20260906070031 | 18 | 134 | 0.0 | 0.0 | 0.00 | 0.08 | 0.00 | 58 | 1018.8 |
| 20260906064536 | 18 | 134 | 0.0 | 0.0 | 0.00 | 0.08 | 0.00 | 58 | 1019.0 |
| 20260906063018 | 18 | 134 | 0.0 | 1.6 | 0.00 | 0.08 | 0.00 | 58 | 1019.1 |
| 20260906061526 | 18 | 134 | 0.0 | 0.0 | 0.00 | 0.08 | 0.00 | 58 | 1019.1 |
| 20260906060035 | 18 | 134 | 0.0 | 3.2 | 0.00 | 0.08 | 0.00 | 58 | 1019.0 |
| 20260906054533 | 18 | 134 | 1.6 | 4.8 | 0.00 | 0.08 | 0.00 | 58 | 1019.2 |
| 20260906053037 | 18 | 235 | 1.6 | 6.4 | 0.00 | 0.08 | 0.00 | 58 | 1019.3 |
| 20260906051520 | 19 | 210 | 0.0 | 0.0 | 0.00 | 0.08 | 0.00 | 58 | 1019.5 |
| 20260906050027 | 19 | 210 | 0.0 | 0.0 | 0.00 | 0.08 | 0.00 | 58 | 1019.7 |
| 20260906044529 | 19 | 210 | 0.0 | 4.8 | 0.00 | 0.08 | 0.00 | 59 | 1019.9 |
| 20260906043035 | 19 | 225 | 0.0 | 4.8 | 0.00 | 0.08 | 0.00 | 59 | 1019.8 |
| 20260906041536 | 20 | 225 | 0.0 | 0.0 | 0.00 | 0.08 | 0.00 | 61 | 1019.9 |
| 20260906040034 | 20 | 225 | 0.0 | 3.2 | 0.00 | 0.08 | 0.00 | 62 | 1019.9 |
| 20260906034532 | 20 | 225 | 0.0 | 0.0 | 0.00 | 0.08 | 0.08 | 62 | 1019.8 |
| 20260906033034 | 20 | 225 | 0.0 | 3.2 | 0.00 | 0.08 | 0.08 | 62 | 1020.0 |
| 20260906031602 | 20 | 229 | 0.0 | 4.8 | 0.00 | 0.08 | 0.08 | 63 | 1020.1 |
| 20260906030037 | 20 | 219 | 0.0 | 1.6 | 0.00 | 0.08 | 0.08 | 63 | 1019.9 |
| 20260906024528 | 21 | 219 | 0.0 | 3.2 | 0.00 | 0.08 | 0.08 | 64 | 1020.0 |
| 20260906023003 | 21 | 229 | 0.0 | 1.6 | 0.00 | 0.08 | 0.08 | 64 | 1019.7 |
| 20260906021510 | 21 | 229 | 0.0 | 8.0 | 0.00 | 0.08 | 0.08 | 65 | 1019.5 |
| 20260906020016 | 21 | 198 | 0.0 | 6.4 | 0.00 | 0.08 | 0.08 | 66 | 1019.1 |
| 20260906014525 | 21 | 203 | 0.0 | 6.4 | 0.00 | 0.08 | 0.08 | 65 | 1019.2 |
| 20260906013021 | 21 | 175 | 0.0 | 1.6 | 0.00 | 0.08 | 0.08 | 65 | 1019.1 |
| 20260906011508 | 22 | 175 | 0.0 | 8.0 | 0.00 | 0.08 | 0.08 | 64 | 1018.9 |
| 20260906010016 | 22 | 213 | 1.6 | 16.1 | 0.00 | 0.08 | 0.08 | 64 | 1019.0 |
| 20260906004520 | 22 | 253 | 1.6 | 8.0 | 0.00 | 0.08 | 0.08 | 64 | 1019.1 |
| 20260906003025 | 22 | 215 | 0.0 | 12.9 | 0.00 | 0.08 | 0.08 | 63 | 1019.0 |
| 20260906001524 | 22 | 216 | 0.0 | 8.0 | 0.00 | 0.08 | 0.08 | 62 | 1018.7 |
| 20260906000011 | 23 | 227 | 1.6 | 8.0 | 0.00 | 0.08 | 0.08 | 60 | 1018.8 |
| 20260905234513 | 24 | 234 | 0.0 | 9.7 | 0.00 | 0.08 | 0.08 | 58 | 1018.7 |
| 20260905233022 | 25 | 223 | 0.0 | 1.6 | 0.00 | 0.08 | 0.08 | 57 | 1018.8 |
| 20260905231533 | 26 | 227 | 0.0 | 6.4 | 0.00 | 0.08 | 0.08 | 56 | 1018.3 |
| 20260905230024 | 26 | 227 | 0.0 | 3.2 | 0.00 | 0.08 | 0.08 | 56 | 1018.3 |
| 20260905224512 | 26 | 232 | 4.8 | 8.0 | 0.00 | 0.08 | 0.08 | 54 | 1018.4 |
| 20260905223015 | 27 | 236 | 3.2 | 8.0 | 0.00 | 0.08 | 0.08 | 53 | 1018.4 |
| 20260905221526 | 27 | 237 | 0.0 | 0.0 | 0.00 | 0.08 | 0.08 | 54 | 1018.5 |
| 20260905220030 | 27 | 256 | 0.0 | 4.8 | 0.00 | 0.08 | 0.08 | 55 | 1018.5 |
| 20260905214526 | 27 | 257 | 0.0 | 3.2 | 0.00 | 0.08 | 0.08 | 54 | 1018.6 |
| 20260905213015 | 26 | 273 | 1.6 | 9.7 | 0.00 | 0.08 | 0.08 | 55 | 1018.7 |
| 20260905211519 | 26 | 275 | 3.2 | 8.0 | 0.00 | 0.08 | 0.08 | 57 | 1019.0 |
| 20260905210027 | 25 | 281 | 1.6 | 8.0 | 0.00 | 0.08 | 0.08 | 58 | 1019.2 |
| 20260905204526 | 25 | 192 | 3.2 | 9.7 | 0.00 | 0.08 | 0.08 | 59 | 1019.5 |
| 20260905203028 | 24 | 263 | 0.0 | 1.6 | 0.00 | 0.08 | 0.08 | 61 | 1019.5 |
| 20260905201516 | 23 | 60 | 0.0 | 3.2 | 0.00 | 0.08 | 0.08 | 62 | 1020.0 |
| 20260905200023 | 23 | 63 | 0.0 | 4.8 | 0.00 | 0.08 | 0.08 | 63 | 1020.0 |
| 20260905194527 | 23 | 104 | 0.0 | 6.4 | 0.00 | 0.08 | 0.08 | 62 | 1020.4 |
| 20260905193037 | 23 | 139 | 0.0 | 0.0 | 0.00 | 0.08 | 0.08 | 60 | 1020.1 |
| 20260905191531 | 23 | 139 | 0.0 | 3.2 | 0.03 | 0.08 | 0.08 | 60 | 1020.0 |
| 20260905190028 | 23 | 75 | 0.0 | 6.4 | 0.03 | 0.08 | 0.08 | 58 | 1020.2 |
| 20260905184532 | 24 | 84 | 0.0 | 8.0 | 0.03 | 0.08 | 0.08 | 61 | 1020.4 |
| 20260905183028 | 24 | 246 | 1.6 | 11.3 | 0.03 | 0.08 | 0.08 | 60 | 1020.5 |
| 20260905181528 | 24 | 348 | 6.4 | 14.5 | 0.03 | 0.05 | 0.05 | 59 | 1020.9 |
| 20260905180047 | 23 | 173 | 6.4 | 17.7 | 0.05 | 0.05 | 0.05 | 61 | 1020.8 |
| 20260905174527 | 23 | 322 | 0.0 | 11.3 | 0.05 | 0.05 | 0.05 | 63 | 1020.9 |
| 20260905173028 | 23 | 223 | 0.0 | 14.5 | 0.05 | 0.05 | 0.05 | 61 | 1021.3 |
| 20260905171511 | 25 | 238 | 3.2 | 12.9 | 0.03 | 0.03 | 0.03 | 58 | 1021.2 |
| 20260905170014 | 27 | 5 | 4.8 | 17.7 | 0.00 | 0.00 | 0.00 | 54 | 1021.3 |
| 20260905164516 | 28 | 239 | 0.0 | 8.0 | 0.00 | 0.00 | 0.00 | 50 | 1020.6 |
| 20260905163023 | 28 | 62 | 0.0 | 1.6 | 0.00 | 0.00 | 0.00 | 48 | 1021.0 |
| 20260905161503 | 29 | 339 | 0.0 | 6.4 | 0.00 | 0.00 | 0.00 | 43 | 1021.2 |
| 20260905160010 | 29 | 320 | 0.0 | 0.0 | 0.00 | 0.00 | 0.00 | 43 | 1021.0 |
| 20260905154515 | 29 | 88 | 0.0 | 0.0 | 0.00 | 0.00 | 0.00 | 43 | 1021.0 |
| 20260905153022 | 28 | 42 | 0.0 | 0.0 | 0.00 | 0.00 | 0.00 | 43 | 1021.0 |
| 20260905151528 | 27 | 324 | 0.0 | 3.2 | 0.00 | 0.00 | 0.00 | 44 | 1021.0 |
| 20260905150007 | 27 | 28 | 0.0 | 0.0 | 0.00 | 0.00 | 0.00 | 47 | 1020.9 |
| 20260905144524 | 26 | 44 | 0.0 | 0.0 | 0.00 | 0.00 | 0.00 | 49 | 1021.1 |
| 20260905143017 | 25 | 45 | 0.0 | 0.0 | 0.00 | 0.00 | 0.00 | 51 | 1021.0 |
| 20260905141525 | 23 | 42 | 0.0 | 0.0 | 0.00 | 0.00 | 0.00 | 54 | 1021.4 |
| 20260905140029 | 21 | 42 | 0.0 | 0.0 | 0.00 | 0.00 | 0.00 | 59 | 1021.7 |
| 20260905134508 | 21 | 43 | 0.0 | 3.2 | 0.00 | 0.00 | 0.00 | 61 | 1021.8 |
| 20260905133020 | 20 | 130 | 0.0 | 1.6 | 0.00 | 0.00 | 0.00 | 63 | 1021.9 |
| 20260905131524 | 20 | 132 | 0.0 | 3.2 | 0.00 | 0.00 | 0.00 | 63 | 1022.0 |
| 20260905130025 | 19 | 132 | 0.0 | 3.2 | 0.00 | 0.00 | 0.00 | 63 | 1022.1 |
| 20260905124532 | 18 | 132 | 1.6 | 4.8 | 0.00 | 0.00 | 0.00 | 63 | 1022.2 |
| 20260905123009 | 18 | 132 | 0.0 | 0.0 | 0.00 | 0.00 | 0.00 | 63 | 1022.1 |
| 20260905121517 | 17 | 132 | 0.0 | 1.6 | 0.00 | 0.00 | 0.00 | 61 | 1021.9 |
| 20260905120036 | 17 | 132 | 0.0 | 0.0 | 0.00 | 0.00 | 0.00 | 61 | 1021.7 |
| 20260905114528 | 17 | 132 | 0.0 | 0.0 | 0.00 | 0.00 | 0.00 | 60 | 1021.7 |
| 20260905113032 | 17 | 132 | 0.0 | 0.0 | 0.00 | 0.00 | 0.00 | 59 | 1021.5 |
| 20260905111516 | 17 | 132 | 0.0 | 0.0 | 0.00 | 0.00 | 0.00 | 59 | 1021.3 |
| 20260905110024 | 17 | 132 | 0.0 | 1.6 | 0.00 | 0.00 | 0.00 | 59 | 1021.0 |
| 20260905104528 | 17 | 132 | 0.0 | 0.0 | 0.00 | 0.00 | 0.00 | 58 | 1020.8 |
| 20260905103035 | 17 | 132 | 0.0 | 0.0 | 0.00 | 0.00 | 0.00 | 58 | 1020.7 |
| 20260905101532 | 17 | 132 | 0.0 | 1.6 | 0.00 | 0.00 | 0.00 | 58 | 1020.6 |
| 20260905100019 | 18 | 132 | 0.0 | 0.0 | 0.00 | 0.00 | 0.00 | 58 | 1020.7 |
| 20260905094523 | 18 | 132 | 0.0 | 1.6 | 0.00 | 0.00 | 0.00 | 57 | 1020.8 |
| 20260905093036 | 18 | 132 | 0.0 | 0.0 | 0.00 | 0.00 | 0.00 | 57 | 1020.6 |
| 20260905091532 | 18 | 132 | 0.0 | 0.0 | 0.00 | 0.00 | 0.00 | 56 | 1020.8 |
| 20260905090033 | 18 | 132 | 0.0 | 1.6 | 0.00 | 0.00 | 0.00 | 56 | 1020.8 |
| 20260905084519 | 18 | 132 | 0.0 | 0.0 | 0.00 | 0.00 | 0.00 | 57 | 1021.0 |
| 20260905083026 | 18 | 132 | 0.0 | 1.6 | 0.00 | 0.00 | 0.00 | 57 | 1021.0 |
| 20260905081530 | 18 | 132 | 0.0 | 1.6 | 0.00 | 0.00 | 0.00 | 57 | 1021.1 |
| 20260905080035 | 18 | 132 | 0.0 | 1.6 | 0.00 | 0.00 | 0.00 | 58 | 1021.3 |
| 20260905074532 | 19 | 132 | 0.0 | 0.0 | 0.00 | 0.00 | 0.00 | 58 | 1021.3 |